STARLINK-30855, 58222

Orbit data source: Space-Track

STARLINK-30855, 58222 is a payload satellite owned by SpaceX/Seattle (US) in LEO that was launched on Fri, 03 Nov 2023 UTC via an FALCON 9 launch vehicle from the Air Force Eastern Test Range (AFETR). Payload-class satellites include a variety of spacecraft equipped with specific instruments for various scientific and technological missions. These include communications satellites like Starlink; space stations such as the ISS; scientific satellites like the Hubble; Earth observation satellites from companies like Planet Labs, Umbra, and HawkEye 360; GPS; miniature CubeSats for education and research; and military/defense satellites.

Loading next visibility...
Identifier
58222, 2023-170S
Orbit
LEO
Country
Flag of USUS
Related business
Manufacturer
SpaceX/Seattle
Mission
Operational Commercial Communications
Bus & Motor
STARLINK V2M, Unknown motor
Mass
730 kg wet, ~700 kg dry
Launch date (UTC)
2023-11-03 (3 years ago)
Launch vehicle
FALCON 9
Launch site
Air Force Eastern Test Range (AFETR)
Object type
Payload
Rocket body
Debris
Shape & HBR
Box + 2 Pan, 17.7 m
Radar Cross Section
33.884 m², Large (>1 m²)

Expand to show TLE details & history
Last TLE update: 2 days ago

TLE from 2 days ago
0 STARLINK-30855
1 58222U 23170S   26171.46133429  .00000746  00000-0  36638-4 0  9998
2 58222  43.0026 334.0971 0001319 256.5883 103.4822 15.27583035146015
Epoch: 2026-06-20T11:04Z
TLE epoch observation values (Epoch: 2026-06-20T11:04:19.282Z)
Latitude
-0°
Longitude
-100.65887°
Altitude
483.027 km
Speed
7.626 km/s
True Right ascension
22h 16m 23s
True Declination
0° 00' 00"
Sunlit
Object was in full shadow at epoch
Visualization orbit readout
Latitude
Unknown
Longitude
Unknown
Altitude
Unknown
Speed
Unknown
Apparent Right ascension
Unknown
Apparent Declination
Unknown
Sunlit
N/A
Visualization observer readout
Local Sidereal Time
00:32:05
Azimuth
Unknown
Elevation
Unknown
Doppler factor
Unknown
Orbital elements
Apogee altitude
485.89 km
Perigee altitude
484.08 km
Semi-major axis
6,863.122 km
Eccentricity
0.00013
Inclination
43.0026°
RAAN
334.0971°
Arg. of periapsis
256.5883°
True anomaly
103.4969°
Mean anomaly
103.4822°
Eccentric anomaly
103.48955°
Mean motion
3.81734 °/min
Orbital period
94.31 mins
BSTAR
0.000036638
Loading maneuver chart data...
Computing Atmospheric mass density...
Loading historical data...
Loading historical data...
Loading historical data...
Loading historical data...
Loading historical data...
Loading historical data...
Loading historical data...

Documentation

Showing up to 5 results
|